Change the Weather History Date:

Tuesday, December 4, 2012

  Actual Average (KFNT) Record (KFNT)
Temperature  
Mean Temperature 52 °F 31 °F  
Max Temperature 64 °F 38 °F 65 °F (2012)
Min Temperature 38 °F 25 °F -4 °F (2002)
Degree Days  
Heating Degree Days 14 34  
Month to date heating degree days 132  
Since 1 July heating degree days 1613  
Cooling Degree Days 0 0  
Month to date cooling degree days 0  
Year to date cooling degree days 531  
Growing Degree Days 2 (Base 50)    
Moisture  
Dew Point 43 °F    
Average Humidity 73    
Maximum Humidity 95    
Minimum Humidity 52    
Precipitation  
Precipitation 0.00 in 0.07 in 0.56 in (1937)
Month to date precipitation 0.28  
Year to date precipitation 29.73  
Snow  
Snow 0.00 in 0.30 in 3.70 in (1964)
Month to date snowfall 1.2  
Since 1 July snowfall 4.1  
Snow Depth -    
Sea Level Pressure  
Sea Level Pressure 29.96 in    
Wind  
Wind Speed 12 mph (WSW)    
Max Wind Speed 18 mph    
Max Gust Speed 28 mph    
Visibility 10 miles    
Events Rain    
T = Trace of Precipitation, MM = Missing Value Source: NWS Daily Summary

Daily Weather History Graph

Daily Weather History Graph

Search for Another Location

Airport or City:

Trip Planner

Search our weather history database for the weather conditions in past years. The results will help you decide how hot, cold, wet, or windy it might be!

Date:

Astronomy

Dec. 04, 2012 Rise Set
Actual Time 7:51 AM EST 5:02 PM EST
Civil Twilight 7:19 AM EST 5:34 PM EST
Nautical Twilight 6:44 AM EST 6:09 PM EST
Astronomical Twilight 6:09 AM EST 6:43 PM EST
Moon 10:54 PM EST 11:40 AM EST
Length of Visible Light 10h 14m
Length of Day
9h 10m
Waning Gibbous, 69% of the Moon is Illuminated
Dec 4
Waning Gibbous
Dec 6
Last Quarter
Dec 13
New
Dec 20
First Quarter
Dec 28
Full

Hourly Weather History & Observations

Time (EST) Temp. Windchill Dew Point Humidity Pressure Visibility Wind Dir Wind Speed Gust Speed Precip Events Conditions
12:15 AM 64.0 °F - 57.4 °F 79% 29.85 in 10.0 mi SSW 16.1 mph 27.6 mph N/A   Overcast
12:35 AM 64.2 °F - 57.2 °F 78% 29.85 in 10.0 mi SSW 18.4 mph 26.5 mph N/A   Overcast
12:55 AM 64.4 °F - 57.2 °F 77% 29.84 in 10.0 mi SSW 16.1 mph 25.3 mph N/A   Overcast
1:15 AM 64.0 °F - 57.2 °F 78% 29.84 in 10.0 mi SSW 17.3 mph 24.2 mph N/A   Overcast
1:35 AM 64.4 °F - 57.2 °F 77% 29.84 in 10.0 mi SSW 17.3 mph 21.9 mph N/A   Overcast
1:55 AM 64.6 °F - 57.4 °F 77% 29.84 in 10.0 mi SSW 11.5 mph 23.0 mph N/A   Overcast
2:15 AM 64.4 °F - 57.4 °F 78% 29.84 in 10.0 mi SSW 18.4 mph 24.2 mph N/A   Overcast
2:35 AM 64.9 °F - 57.6 °F 77% 29.85 in 10.0 mi SSW 15.0 mph 24.2 mph N/A   Overcast
2:55 AM 64.8 °F - 57.7 °F 78% 29.85 in 10.0 mi SW 16.1 mph 26.5 mph N/A   Overcast
3:15 AM 64.8 °F - 57.9 °F 78% 29.86 in 10.0 mi SW 13.8 mph 19.6 mph N/A   Overcast
3:55 AM 64.4 °F - 58.1 °F 80% 29.86 in 10.0 mi SW 11.5 mph 18.4 mph N/A   Overcast
4:15 AM 64.0 °F - 58.1 °F 81% 29.85 in 10.0 mi SW 8.1 mph 18.4 mph N/A   Overcast
4:35 AM 63.1 °F - 58.5 °F 85% 29.85 in 10.0 mi SSW 9.2 mph - N/A   Overcast
4:55 AM 60.6 °F - 58.3 °F 92% 29.87 in 10.0 mi West 15.0 mph 21.9 mph N/A   Overcast
5:15 AM 59.5 °F - 58.1 °F 95% 29.87 in 10.0 mi West 11.5 mph - N/A   Overcast
5:35 AM 58.5 °F - 56.7 °F 94% 29.89 in 7.0 mi West 10.4 mph 19.6 mph N/A   Light Drizzle
5:55 AM 57.0 °F - 54.1 °F 90% 29.89 in 7.0 mi WNW 12.7 mph 20.7 mph N/A Rain Rain
6:15 AM 55.9 °F - 53.6 °F 92% 29.90 in 7.0 mi West 10.4 mph - N/A Rain Rain
6:35 AM 55.0 °F - 52.9 °F 92% 29.91 in 7.0 mi West 11.5 mph 17.3 mph N/A   Overcast
6:55 AM 54.3 °F - 51.8 °F 91% 29.92 in 7.0 mi WNW 9.2 mph - N/A   Drizzle
7:16 AM 53.1 °F - 50.2 °F 90% 29.93 in 10.0 mi West 11.5 mph - N/A   Light Drizzle
7:35 AM 51.8 °F - 48.7 °F 89% 29.94 in 10.0 mi West 9.2 mph - N/A Rain Rain
7:55 AM 51.1 °F - 49.1 °F 93% 29.96 in 7.0 mi West 9.2 mph - N/A Rain Light Rain
8:15 AM 50.5 °F - 48.2 °F 92% 29.97 in 10.0 mi West 8.1 mph - N/A Rain Light Rain
8:35 AM 50.0 °F - 47.3 °F 90% 29.99 in 10.0 mi WSW 9.2 mph - N/A Rain Rain
8:55 AM 49.3 °F - 46.8 °F 91% 29.99 in 7.0 mi WSW 8.1 mph - N/A Rain Light Rain
9:15 AM 49.1 °F - 46.6 °F 91% 29.99 in 10.0 mi WSW 5.8 mph - N/A   Overcast
9:35 AM 49.3 °F - 46.4 °F 90% 29.98 in 10.0 mi WSW 4.6 mph - N/A   Overcast
9:55 AM 50.0 °F - 44.8 °F 82% 29.98 in 10.0 mi WSW 6.9 mph - N/A   Mostly Cloudy
10:15 AM 50.0 °F - 42.8 °F 76% 29.98 in 10.0 mi WSW 8.1 mph - N/A   Scattered Clouds
10:27 AM 50.2 °F - 42.6 °F 75% 29.98 in 10.0 mi WSW 9.2 mph - N/A   Mostly Cloudy
10:57 AM 50.0 °F - 41.0 °F 71% 29.98 in 10.0 mi WSW 9.2 mph - N/A   Overcast
11:16 AM 50.0 °F - 41.0 °F 71% 29.98 in 10.0 mi West 9.2 mph - N/A   Overcast
11:36 AM 50.0 °F - 41.0 °F 71% 29.98 in 10.0 mi WSW 6.9 mph - N/A   Overcast
11:56 AM 50.0 °F - 41.0 °F 71% 29.97 in 10.0 mi WSW 11.5 mph - N/A   Overcast
12:16 PM 50.0 °F - 39.2 °F 66% 29.96 in 10.0 mi WSW 10.4 mph - N/A   Scattered Clouds
12:36 PM 50.0 °F - 39.2 °F 66% 29.96 in 10.0 mi WSW 8.1 mph - N/A   Clear
12:56 PM 50.0 °F - 39.2 °F 66% 29.96 in 10.0 mi WSW 11.5 mph - N/A   Clear
1:17 PM 50.0 °F - 39.2 °F 66% 29.97 in 10.0 mi WSW 10.4 mph - N/A   Clear
1:37 PM 50.0 °F - 39.2 °F 66% 29.96 in 10.0 mi West 11.5 mph 17.3 mph N/A   Clear
1:57 PM 51.8 °F - 39.2 °F 62% 29.96 in 10.0 mi West 12.7 mph - N/A   Clear
2:16 PM 51.8 °F - 39.2 °F 62% 29.96 in 10.0 mi West 12.7 mph 18.4 mph N/A   Clear
2:36 PM 53.6 °F - 37.4 °F 54% 29.96 in 10.0 mi West 15.0 mph - N/A   Clear
2:56 PM 51.8 °F - 37.4 °F 58% 29.97 in 10.0 mi West 9.2 mph - N/A   Clear
3:11 PM 53.8 °F - 36.9 °F 53% 29.97 in 10.0 mi West 13.8 mph 20.7 mph N/A   Clear
3:15 PM 53.8 °F - 36.5 °F 52% 29.97 in 10.0 mi West 10.4 mph 18.4 mph N/A   Clear
3:35 PM 52.3 °F - 36.0 °F 54% 29.97 in 10.0 mi WSW 10.4 mph 19.6 mph N/A   Clear
3:55 PM 51.6 °F - 36.3 °F 56% 29.97 in 10.0 mi SW 9.2 mph - N/A   Clear
4:15 PM 51.8 °F - 36.1 °F 55% 29.98 in 10.0 mi WSW 9.2 mph - N/A   Clear
4:35 PM 50.9 °F - 36.3 °F 57% 29.99 in 10.0 mi WSW 10.4 mph - N/A   Clear
4:55 PM 50.2 °F - 32.9 °F 52% 29.99 in 10.0 mi WSW 11.5 mph 17.3 mph N/A   Clear
5:15 PM 49.1 °F - 32.2 °F 52% 29.99 in 10.0 mi WSW 9.2 mph 16.1 mph N/A   Clear
5:35 PM 48.2 °F - 32.2 °F 54% 30.00 in 10.0 mi WSW 6.9 mph - N/A   Clear
5:55 PM 47.7 °F - 33.1 °F 57% 30.01 in 10.0 mi WSW 10.4 mph 16.1 mph N/A   Clear
6:15 PM 47.1 °F - 33.8 °F 60% 30.02 in 10.0 mi WSW 11.5 mph 18.4 mph N/A   Clear
6:36 PM 46.4 °F 41.1 °F 33.1 °F 60% 30.02 in 10.0 mi WSW 11.5 mph - N/A   Clear
6:55 PM 46.0 °F 41.0 °F 32.9 °F 60% 30.02 in 10.0 mi West 10.4 mph - N/A   Clear
7:15 PM 45.3 °F 40.6 °F 32.9 °F 62% 30.03 in 10.0 mi WSW 9.2 mph 16.1 mph N/A   Clear
7:35 PM 44.8 °F 40.4 °F 33.4 °F 64% 30.03 in 10.0 mi WSW 8.1 mph - N/A   Clear
7:55 PM 44.4 °F 39.5 °F 34.0 °F 67% 30.03 in 10.0 mi WSW 9.2 mph - N/A   Clear
8:15 PM 44.6 °F 39.2 °F 34.7 °F 68% 30.04 in 10.0 mi WSW 10.4 mph - N/A   Clear
8:35 PM 44.8 °F 39.0 °F 35.2 °F 69% 30.05 in 10.0 mi West 11.5 mph - N/A   Clear
8:55 PM 44.6 °F 38.1 °F 35.6 °F 71% 30.04 in 10.0 mi West 13.8 mph - N/A   Clear
9:15 PM 43.5 °F 37.1 °F 34.9 °F 72% 30.06 in 10.0 mi West 12.7 mph - N/A   Clear
9:35 PM 43.2 °F 36.6 °F 34.0 °F 70% 30.06 in 10.0 mi West 12.7 mph - N/A   Clear
9:55 PM 42.8 °F 35.8 °F 33.8 °F 70% 30.07 in 10.0 mi West 13.8 mph 18.4 mph N/A   Clear
10:15 PM 42.8 °F 36.2 °F 31.1 °F 63% 30.08 in 10.0 mi WNW 12.7 mph 20.7 mph N/A   Clear
10:35 PM 42.1 °F 34.9 °F 30.9 °F 65% 30.09 in 10.0 mi WNW 13.8 mph 23.0 mph N/A   Clear
10:55 PM 40.6 °F 34.8 °F 30.9 °F 68% 30.10 in 10.0 mi WNW 9.2 mph - N/A   Clear
11:15 PM 40.1 °F 34.7 °F 30.9 °F 70% 30.11 in 10.0 mi WNW 8.1 mph - N/A   Clear
11:35 PM 39.2 °F 32.5 °F 30.6 °F 71% 30.12 in 10.0 mi WNW 10.4 mph - N/A   Clear
11:55 PM 38.7 °F 32.4 °F 30.0 °F 71% 30.12 in 10.0 mi WNW 9.2 mph - N/A   Clear